When you browse on this site, cookies collect data to enhance your experience and personalize the content and advertising you see.
Visit our Privacy Policy to learn more. By continuing to use the site, you agree to this use of cookies and data.
EN

Hourly Weather Hutrah

Today, 18 September, Friday

Time Temperature Precipitation Wind Pressure Humidity
00:00 +10°C° 0 mm 1 mps 613 mmHg 90%
01:00 +9°C° 0 mm 1 mps 613 mmHg 90%
02:00 +9°C° 0 mm 1 mps 612 mmHg 90%
03:00 +8°C° 0 mm 1 mps 612 mmHg 89%
04:00 +9°C° 0 mm 1 mps 612 mmHg 88%
05:00 +9°C° 0 mm 1 mps 612 mmHg 86%
06:00 +9°C° 0 mm 1 mps 612 mmHg 85%
07:00 +12°C° 0 mm 1 mps 612 mmHg 77%
08:00 +14°C° 0 mm 1 mps 613 mmHg 70%
09:00 +18°C° 0 mm 2 mps 614 mmHg 61%
10:00 +19°C° 0 mm 2 mps 614 mmHg 57%
11:00 +20°C° 0 mm 2 mps 615 mmHg 53%
12:00 +21°C° 0 mm 2 mps 615 mmHg 50%
13:00 +21°C° 0.1 mm 2 mps 614 mmHg 49%
14:00 +21°C° 0.1 mm 2 mps 614 mmHg 49%
15:00 +21°C° 0 mm 2 mps 614 mmHg 49%
16:00 +18°C° 0.1 mm 2 mps 613 mmHg 60%
17:00 +16°C° 0.1 mm 2 mps 612 mmHg 70%
18:00 +14°C° 0.1 mm 1 mps 611 mmHg 80%
19:00 +13°C° 0 mm 1 mps 611 mmHg 81%
20:00 +13°C° 0 mm 1 mps 611 mmHg 82%
21:00 +12°C° 0 mm 1 mps 611 mmHg 82%
22:00 +12°C° 0 mm 2 mps 611 mmHg 83%
23:00 +10°C° 0 mm 2 mps 610 mmHg 84%

Tomorrow, 19 September, Saturday

Time Temperature Precipitation Wind Pressure Humidity
00:00 +10°C° 0 mm 2 mps 610 mmHg 84%
01:00 +10°C° 0 mm 2 mps 610 mmHg 83%
02:00 +9°C° 0 mm 2 mps 610 mmHg 82%
03:00 +9°C° 0 mm 2 mps 609 mmHg 81%
04:00 +10°C° 0 mm 1 mps 609 mmHg 77%
05:00 +9°C° 0 mm 1 mps 609 mmHg 73%
06:00 +9°C° 0 mm 1 mps 609 mmHg 69%
07:00 +10°C° 0 mm 2 mps 610 mmHg 66%
08:00 +14°C° 0 mm 2 mps 611 mmHg 64%
09:00 +16°C° 0 mm 2 mps 612 mmHg 61%
10:00 +16°C° 0 mm 3 mps 612 mmHg 61%
11:00 +17°C° 0 mm 3 mps 613 mmHg 61%
12:00 +17°C° 0 mm 3 mps 613 mmHg 61%
13:00 +17°C° 0.1 mm 3 mps 613 mmHg 63%
14:00 +16°C° 0.1 mm 3 mps 612 mmHg 65%
15:00 +16°C° 0.1 mm 3 mps 612 mmHg 67%
16:00 +14°C° 0 mm 2 mps 612 mmHg 71%
17:00 +13°C° 0 mm 1 mps 611 mmHg 76%
18:00 +11°C° 0 mm 1 mps 611 mmHg 80%
19:00 +11°C° 0 mm 1 mps 611 mmHg 81%
20:00 +10°C° 0 mm 1 mps 611 mmHg 82%
21:00 +9°C° 0 mm 2 mps 611 mmHg 83%
22:00 +9°C° 0 mm 2 mps 612 mmHg 83%
23:00 +9°C° 0 mm 1 mps 612 mmHg 84%

Day after tomorrow, 20 September, Sunday

Time Temperature Precipitation Wind Pressure Humidity
00:00 +9°C° 0 mm 1 mps 612 mmHg 84%
01:00 +9°C° 0 mm 1 mps 612 mmHg 85%
02:00 +8°C° 0 mm 1 mps 611 mmHg 86%
03:00 +7°C° 0 mm 1 mps 611 mmHg 87%
04:00 +7°C° 0 mm 1 mps 611 mmHg 88%
05:00 +8°C° 0 mm 1 mps 612 mmHg 89%
06:00 +8°C° 0 mm 1 mps 612 mmHg 90%
07:00 +9°C° 0 mm 1 mps 613 mmHg 86%
08:00 +10°C° 0 mm 1 mps 613 mmHg 83%
09:00 +10°C° 0 mm 2 mps 613 mmHg 79%
10:00 +12°C° 0 mm 2 mps 614 mmHg 73%
11:00 +13°C° 0 mm 2 mps 614 mmHg 67%
12:00 +15°C° 0 mm 2 mps 614 mmHg 61%
13:00 +15°C° 0 mm 2 mps 614 mmHg 60%
14:00 +15°C° 0 mm 2 mps 614 mmHg 59%
15:00 +15°C° 0 mm 2 mps 614 mmHg 58%
16:00 +13°C° 0 mm 2 mps 613 mmHg 68%
17:00 +11°C° 0 mm 1 mps 612 mmHg 77%
18:00 +8°C° 0 mm 0 mps 612 mmHg 86%
19:00 +8°C° 0 mm 1 mps 612 mmHg 86%
20:00 +8°C° 0 mm 1 mps 612 mmHg 86%
21:00 +7°C° 0 mm 1 mps 612 mmHg 86%
22:00 +7°C° 0 mm 1 mps 612 mmHg 86%
23:00 +7°C° 0 mm 1 mps 612 mmHg 86%

21 September, Monday

Time Temperature Precipitation Wind Pressure Humidity
00:00 +7°C° 0 mm 1 mps 613 mmHg 86%
01:00 +6°C° 0 mm 0 mps 613 mmHg 87%
02:00 +7°C° 0 mm 0 mps 613 mmHg 87%
03:00 +7°C° 0 mm 0 mps 613 mmHg 88%
04:00 +7°C° 0 mm 1 mps 613 mmHg 88%
05:00 +7°C° 0 mm 1 mps 613 mmHg 88%
06:00 +6°C° 0 mm 1 mps 613 mmHg 89%
07:00 +8°C° 0 mm 1 mps 614 mmHg 82%
08:00 +9°C° 0 mm 2 mps 615 mmHg 76%
09:00 +13°C° 0 mm 2 mps 616 mmHg 69%
10:00 +13°C° 0 mm 2 mps 616 mmHg 70%
11:00 +13°C° 0 mm 2 mps 616 mmHg 71%
12:00 +14°C° 0 mm 2 mps 616 mmHg 72%
13:00 +13°C° 0.1 mm 2 mps 616 mmHg 74%
14:00 +13°C° 0.1 mm 2 mps 615 mmHg 76%
15:00 +13°C° 0.1 mm 2 mps 615 mmHg 78%
16:00 +12°C° 0 mm 2 mps 615 mmHg 83%
17:00 +11°C° 0 mm 1 mps 614 mmHg 88%
18:00 +10°C° 0 mm 1 mps 614 mmHg 93%
19:00 +10°C° 0 mm 1 mps 614 mmHg 93%
20:00 +9°C° 0 mm 1 mps 614 mmHg 94%
21:00 +9°C° 0 mm 1 mps 614 mmHg 94%
22:00 +9°C° 0 mm 1 mps 614 mmHg 94%
23:00 +9°C° 0 mm 1 mps 614 mmHg 93%

22 September, Tuesday

Time Temperature Precipitation Wind Pressure Humidity
00:00 +9°C° 0 mm 1 mps 614 mmHg 92%
01:00 +9°C° 0 mm 1 mps 613 mmHg 93%
02:00 +7°C° 0 mm 0 mps 613 mmHg 93%
03:00 +7°C° 0 mm 0 mps 612 mmHg 93%
04:00 +8°C° 0 mm 1 mps 612 mmHg 92%
05:00 +8°C° 0 mm 1 mps 612 mmHg 91%
06:00 +8°C° 0 mm 1 mps 612 mmHg 90%
07:00 +10°C° 0 mm 1 mps 613 mmHg 83%
08:00 +12°C° 0 mm 1 mps 614 mmHg 75%
09:00 +15°C° 0 mm 1 mps 615 mmHg 67%
10:00 +16°C° 0.2 mm 1 mps 616 mmHg 66%
11:00 +17°C° 0.2 mm 2 mps 616 mmHg 65%
12:00 +18°C° 0.2 mm 2 mps 616 mmHg 63%
13:00 +17°C° 0.5 mm 2 mps 616 mmHg 64%
14:00 +17°C° 0.5 mm 2 mps 616 mmHg 65%
15:00 +18°C° 0.5 mm 1 mps 615 mmHg 66%
16:00 +15°C° 0.3 mm 1 mps 615 mmHg 74%
17:00 +13°C° 0.3 mm 1 mps 614 mmHg 81%
18:00 +11°C° 0.3 mm 1 mps 613 mmHg 88%
19:00 +11°C° 0 mm 1 mps 614 mmHg 89%
20:00 +10°C° 0 mm 0 mps 614 mmHg 90%
21:00 +9°C° 0 mm 0 mps 614 mmHg 90%
22:00 +11°C° 0 mm 1 mps 615 mmHg 90%
23:00 +11°C° 0 mm 1 mps 615 mmHg 89%

23 September, Wednesday

Time Temperature Precipitation Wind Pressure Humidity
00:00 +11°C° 0 mm 1 mps 615 mmHg 89%
01:00 +11°C° 0 mm 1 mps 615 mmHg 90%
02:00 +11°C° 0 mm 1 mps 615 mmHg 90%
03:00 +11°C° 0 mm 1 mps 614 mmHg 91%
04:00 +11°C° 0 mm 1 mps 614 mmHg 93%
05:00 +10°C° 0 mm 1 mps 614 mmHg 94%
06:00 +10°C° 0 mm 1 mps 614 mmHg 95%
07:00 +10°C° 0 mm 1 mps 614 mmHg 94%
08:00 +11°C° 0 mm 1 mps 615 mmHg 93%
09:00 +12°C° 0 mm 1 mps 615 mmHg 91%
10:00 +13°C° 0 mm 1 mps 615 mmHg 89%
11:00 +13°C° 0 mm 2 mps 615 mmHg 86%
12:00 +14°C° 0 mm 2 mps 615 mmHg 84%
13:00 +14°C° 0 mm 2 mps 615 mmHg 82%
14:00 +14°C° 0 mm 2 mps 615 mmHg 79%
15:00 +15°C° 0 mm 2 mps 615 mmHg 77%
16:00 +14°C° 0 mm 1 mps 615 mmHg 81%
17:00 +13°C° 0 mm 1 mps 614 mmHg 86%
18:00 +11°C° 0 mm 1 mps 614 mmHg 91%
19:00 +11°C° 0 mm 1 mps 614 mmHg 90%
20:00 +11°C° 0 mm 1 mps 614 mmHg 90%
21:00 +11°C° 0 mm 1 mps 614 mmHg 90%
22:00 +10°C° 0 mm 2 mps 614 mmHg 90%
23:00 +10°C° 0 mm 2 mps 614 mmHg 90%
Show more